Regional Weather Roundup
Issued by NWS

Home | Current Version | Previous Version | Text Only | Print | Product List | Glossary On
Versions: 1 2 3 4 5 6 7 8 9 10 11 12 13 14 15 16 17 18 19 20 21 22 23 24 25 26 27 28 29 30 31 32 33 34 35 36 37 38 39 40 41 42 43 44 45 46 47 48 49 50
000
ASPQ40 PGUM 280214
RWRPQ
WEATHER ROUNDUP FOR THE MARIANAS AND MICRONESIA
NATIONAL WEATHER SERVICE TIYAN GU
1200 PM CHST THU MAY 28 2015

GUZ001>004-280300-
MARIANA ISLANDS-

CITY           SKY/WX    TMP DP  RH WIND       PRES   REMARKS
GUAM AIRPORT   MOSUNNY   84  75  74 E15G22    29.84F HX  92
ANDERSEN AFB   PTSUNNY   84  77  79 E13       29.85F HX  94
ROTA AIRPORT   NOT AVBL
TINIAN AP      NOT AVBL
SAIPAN AP      MOSUNNY   88  77  70 SE12G21   29.86F HX 100

$$

PMZ161-280300-
REPUBLIC OF PALAU-

CITY           SKY/WX    TMP DP  RH WIND       PRES   REMARKS
KOROR AP       PTSUNNY   88  75  66 W9        29.84F HX  97
KOROR WSO      PTSUNNY   90  75  62 NW6       29.84F HX 100

$$

PMZ171>174-280300-
FEDERATED STATES OF MICRONESIA-

CITY           SKY/WX    TMP DP  RH WIND       PRES   REMARKS
YAP AIRPORT    PTSUNNY   82  77  83 VRB5      29.82F HX  91
CHUUK AP       CLOUDY    84  79  84 S8        29.83F HX  96
POHNPEI AP     CLOUDY    88  77  70 E6        29.85F HX 100
POHNPEI WSO    CLOUDY    86  79  79 E8        29.88F HX  99
KOSRAE AP      NOT AVBL

$$

PMZ181-280300-
REPUBLIC OF THE MARSHALL ISLANDS-

CITY           SKY/WX    TMP DP  RH WIND       PRES   REMARKS
KWAJALEIN AP   MOSUNNY   86  75  70 E3        29.85F HX  95
MAJURO AP      NOT AVBL
MAJURO WSO     PTSUNNY   84  77  79 VRB3      29.81F HX  94

$$




USA.gov is the U.S. government's official web portal to all federal, state and local government web resources and services.